Regional Weather Roundup
Issued by NWS

Home | Current Version | Previous Version | Text Only | Print | Product List | Glossary Off
Versions: 1 2 3 4 5 6 7 8 9 10 11 12 13 14 15 16 17 18 19 20 21 22 23 24 25 26 27 28 29 30 31 32 33 34 35 36 37 38 39 40 41 42 43 44 45 46 47 48 49 50

000
ASUS43 KMKX 231500
RWRWI

WISCONSIN REGIONAL WEATHER ROUNDUP
NATIONAL WEATHER SERVICE MILWAUKEE/SULLIVAN WI
1000 AM CDT SAT AUG 23 2014

NOTE: "FAIR" INDICATES FEW OR NO CLOUDS BELOW 12,000 FEET WITH NO
SIGNIFICANT WEATHER AND/OR OBSTRUCTIONS TO VISIBILITY.

WIZ001-002-006>008-014>016-023>028-231600-
NORTHWEST WISCONSIN

CITY           SKY/WX    TMP DP  RH WIND       PRES   REMARKS
SUPERIOR ARPT  CLOUDY    63  61  94 NE8       30.06S
ASHLAND        FOG       63  61  93 NE7       30.07S VSB 3/4
HAYWARD        CLOUDY    70  65  84 NE6       30.06R
SIREN          CLOUDY    67  64  91 E3        30.04S
RICE LAKE      CLOUDY    70  66  86 NE3       30.04F
LADYSMITH      CLOUDY    69  67  92 NE5       30.06S
EAU CLAIRE     NOT AVBL
MENOMONIE      CLOUDY    69  67  92 CALM      30.01F
NEW RICHMOND   CLOUDY    68  66  94 E7        30.02S
OSCEOLA        CLOUDY    69  68  97 NE7       30.04S
$$

WIZ003>005-009-010-017-018-231600-
NORTH CENTRAL WISCONSIN

CITY           SKY/WX    TMP DP  RH WIND       PRES   REMARKS
WOODRUFF       PTSUNNY   74  72  93 N5        30.07R
RHINELANDER    CLOUDY    70  68  93 E3        30.08R
EAGLE RIVER    CLOUDY    70  70 100 CALM      30.06S
LAND O LAKES   CLOUDY    67  67 100 CALM      30.09R
PHILLIPS       CLOUDY    68  66  95 E3        30.06R
TOMAHAWK       CLOUDY    69  68  96 CALM      30.07R FOG
MEDFORD        CLOUDY    70  70 100 NE5       30.05S FOG
MERRILL        CLOUDY    70  70 100 E3        30.06R FOG
$$

WIZ029-030-035-036-043>047-231600-
CENTRAL WISCONSIN

CITY           SKY/WX    TMP DP  RH WIND       PRES   REMARKS
WAUSAU         CLOUDY    71  69  93 E5        30.03R FOG
MOSINEE        FOG       70  70 100 MISG      30.06R VSB 1
MARSHFIELD     FOG       72  70  93 E8        30.03S VSB 3/4
STEVENS POINT  FOG       68  68  99 E5        30.04R VSB 3/4
WAUPACA        FOG       72  70  95 CALM      30.03R VSB 1/2
WAUTOMA        FOG       73  73 100 E5        30.02R VSB 1/2
WISC RAPIDS    CLOUDY    73  70  90 E7        30.03S FOG
CAMP DOUGLAS   CLOUDY    73  73 100 E3        30.00F FOG
$$

WIZ011>013-019>022-031-037>040-048>050-231600-
NORTHEAST WISCONSIN

CITY           SKY/WX    TMP DP  RH WIND       PRES   REMARKS
ANTIGO         FOG       68  68 100 E5        30.07R VSB 1
STURGEON BAY   CLOUDY    70  64  83 SE6       30.06R
GREEN BAY      CLOUDY    74  71  91 CALM      30.03S FOG
MANITOWOC      NOT AVBL
APPLETON         N/A     72  70  94 VRB6      30.04R FOG
CLINTONVILLE   FOG       70  70 100 CALM      30.03R VSB 1/2
OSHKOSH        CLOUDY    74  71  91 E6        30.01S FOG
$$

WIZ032>034-041-042-053>061-231600-
SOUTHWEST WISCONSIN

CITY           SKY/WX    TMP DP  RH WIND       PRES   REMARKS
LA CROSSE      CLOUDY    76  71  85 N3        29.96F
SPARTA         CLOUDY    72  72 100 CALM      30.00F FOG
VIROQUA        CLOUDY    73  73 100 E5        30.00F VSB 3/4
BOSCOBEL       FOG       77  75  93 CALM      29.97F VSB 1/2
PRAIRIE DU CHI CLOUDY    76  73  90 CALM      29.95F
PLATTEVILLE    FAIR      75  74  97 CALM      29.99S
$$

WIZ056-057-062-063-064-067-068-231600-
SOUTH CENTRAL WISCONSIN

CITY           SKY/WX    TMP DP  RH WIND       PRES   REMARKS
BARABOO/DELLS  CLOUDY    75  73  95 S3        30.00S FOG
LONE ROCK      CLOUDY    81  75  83 E5        29.97F HAZE    HX  86
WATERTOWN      CLOUDY    73  73 100 SE6       30.01S FOG
MADISON        CLOUDY    76  73  91 CALM      30.01R FOG
MIDDLETON      CLOUDY    78  77  96 E5        30.00S HX  81
MONROE         CLOUDY    73  73 100 CALM      29.99S FOG
JANESVILLE     CLOUDY    79  73  83 E5        29.99S FOG     HX  82
$$

WIZ051-052-058>065-066-070>072-231600-
SOUTHEAST WISCONSIN

CITY           SKY/WX    TMP DP  RH WIND       PRES   REMARKS
MILWAUKEE      FOG       72  71  97 E5        30.01S VSB 1/2
WAUKESHA       FOG       70  70 100 E6        30.03R VSB 1
MILWAUKEE/TIMM NOT AVBL
RACINE         FOG       73  71  93 E5        30.02F VSB 1/2
BURLINGTON     CLOUDY    70  70 100 NE3       30.01R FOG
KENOSHA        CLOUDY    73  72  96 E5        30.01S FOG
FOND DU LAC    CLOUDY    74  70  87 SE7       30.02R
SHEBOYGAN      CLOUDY    73  69  87 SE8       30.03R
WEST BEND      CLOUDY    70  70 100 E5        30.02S FOG
JUNEAU         CLOUDY    71  47  42 SE6       30.03R HAZE
$$

LSZ147-162-231600-
LAKE SUPERIOR

STATION/POSITION TIME  TEMP    WIND        PRES    WAVE
                       AIR SEA DIR/SP/G            HT/PER
                 (UTC) (F)     (DEG/KT/KT) (MB)    (FT/S)
W MID LAKE BUOY  1350   59 58   40/ 12/ 14 1018.1R   1/ 3
DEVILS ISLAND    1400   60      60/ 14/ 16 1017.9F
PORT WING        1400   61      30/  7/  9 1017.9
SAXON HARBOR     1400   63      CALM  /  3 1017.9R
$$

LMZ867-665-643>646-231600-
LAKE MICHIGAN

STATION/POSITION TIME  TEMP    WIND        PRES    WAVE
                       AIR SEA DIR/SP/G            HT/PER
                 (UTC) (F)     (DEG/KT/KT) (MB)    (FT/S)
N MID LAKE BUOY  1350   67 65  110/  8/ 10 1017.0R   1
NORTHPORT PIER   1400   67     140/  6/  7 1017.9R
SISTER BAY       1411   71     160/ 10/ 13   N/A
KEWAUNEE LAKESHO 1400   68     100/  5/  6 1016.2R
SHEBOYGAN LAKESH 1400   68 66  110/  4/  4 1016.9F
ATWATER BUOY     1400   70     100/  4/  6 1017.3R
MILWAUKEE LAKESH 1400   70     110/  5/  6   N/A
S MID LAKE BUOY  1350   70 69   80/  8/ 10 1016.0R   0
KENOSHA   LAKESH 1400   71      70/  3/  4 1015.6F
$$

TC  - TEMPERATURE IN CELSIUS
VSB - VISIBILITY IN STATUTE MILES
WCI - WIND CHILL INDEX
HX  - HEAT INDEX



USA.gov is the U.S. government's official web portal to all federal, state and local government web resources and services.